User: anonymous   Login
Location: Albany
(35.0000°S, 118.0000°E)
Time: 02:43:02
(UTC-05:00)
Language:

JAS-1B - Orbit

View from above orbital plane
View from above orbital plane
View from above satellite
View from above satellite

Ground track
Ground track

The orbit data is extracted from the following two-line orbital elements,

1 20480U 90013C   17056.22382429 -.00000009  00000-0  61132-4 0  9995
2 20480  99.0327 210.4460 0539367 284.6643  69.5277 12.83414688267353
Epoch (UTC): 25 February 2017 05:22:18
Eccentricity: 0.0539367
inclination: 99.0327°
perigee height: 912 km
apogee height: 1743 km
right ascension of ascending node: 210.4460°
argument of perigee: 284.6643°
revolutions per day: 12.83414688
mean anomaly at epoch: 69.5277°
orbit number at epoch: 26735

The dashed part of the orbit path shows where the satellite is in the earth's shadow,  

DLR